Starlink 1624

operational
NORAD ID: 46130 Int'l Des: 2020-057 Owner: SPXS Country: US Constellation: starlink
LEOCIRCULARSTARLINK_TYPE

Über Starlink 1624

Beschreibung wird geladen...

Live-Position

3D-Globus wird geladen...

Nächste Überflüge

Höhenverlauf

Altitude vs Time

uPlot chart will show altitude changes over time

Zweizeiliger Elementsatz

1 46130U 20057P 26034.66668981 .00056237 00000-0 73441-3 0 9998
2 46130 53.0477 38.7841 0003250 255.7517 279.5619 15.58139129 5924
Epoch: 3. Feb. 2026 • Age: 14 hours

Aktueller Status

Höhe 407.7 km
Geschwindigkeit 7.67 km/s
Subsatellitenpunkt -49.56°S, 50.14°E
Startdatum 18. Aug. 2020
Alter 5.4 years
Typ internet

Technische Details

Klassifizierung Payload
Masse 260.00 kg
Trockenmasse 248.00 kg
Gesamtmasse 260.00 kg
Länge 0.20 m
Durchmesser 2.80 m
Spannweite 9.00 m
Form Box + pan
Hersteller SPXS
Bus-Typ Starlink
Phasenstatus In Orbit
Besitzer/Staat SPXS/US

Große Konstellationen

Loading constellations...